CZ-7 R/B (52512 NORAD) Tracking and Keplerian Element Data
This shows tracking and keplerian element data for the satellite.
Feedback or suggestion? Click here.
Element | Value |
Catalog | 52512 |
Name | CZ-7 R/B |
Epoch Orbit | 248 |
Epoch Day | 145.26460629 |
Epoch Year | 2022 |
RAAN | 350.611 |
Inclination | 41.4866 |
Eccentricity | 0.0018869 |
Argument of Perigee | 294.1822 |
Mean Anonmoly | 66.8963 |
Mean Motion | 16.48028749 |
Decay Rate | 0.13236528 |
L1 | 1 52512U 22050D 22145.26460629 .13236528 84317-5 16320-3 0 9996 |
L2 | 2 52512 41.4866 350.6110 0018869 294.1822 66.8963 16.48028749 2483 |
Live tracking and technical data element details for CZ-7 R/B (NORAD 52512). CZ-7 R/B can be tracked NOW for your location showing map with azimuth and elevation plus other details from your city location.
Track the satellite on the map from your city or location and see movement details for azimuth, elevation, latitude, longitude, range, height, and movement on the map or in text.
IsCatalogInMostPopularTable: catalog: 52512, numindb: 6
Update: records affected: 1
GetName: 52512 CZ-7 R/B
Hit Count: updated at: Sun, 14 Aug 2022 00:13:41 GMT